Weather History for Olathe, KS

Change the Weather History Date:

Saturday, February 19, 2011

  Actual Average Record
Temperature  
Mean Temperature 46 °F 36 °F  
Max Temperature 49 °F 46 °F 70 °F (1943)
Min Temperature 42 °F 26 °F 0 °F (1978)
Degree Days  
Heating Degree Days 19 29  
Month to date heating degree days 696 599  
Since 1 July heating degree days 3792 3647  
Cooling Degree Days 0 0  
Month to date cooling degree days 0 0  
Year to date cooling degree days 0 0  
Moisture  
Dew Point 35 °F    
Average Humidity 66    
Maximum Humidity 89    
Minimum Humidity 42    
Precipitation  
Precipitation 0.09 in 0.06 in 1.40 in (1955)
Month to date precipitation 0.20 1.03  
Year to date precipitation 0.39 2.15  
Sea Level Pressure  
Sea Level Pressure 30.13 in    
Wind  
Wind Speed 12 mph (East)    
Max Wind Speed 18 mph    
Max Gust Speed 24 mph    
Visibility 10 miles    
Events Rain    
T = Trace of Precipitation, MM = Missing Value Source: NWS Daily Summary

Daily Weather History Graph

Daily Weather History Graph

Search for Another Location

Airport:

Trip Planner

Search our weather history database for the weather conditions in past years. The results will help you decide how hot, cold, wet, or windy it might be!

Date:

Astronomy

Feb. 19, 2011 Rise Set
Actual Time 7:05 AM CST 6:00 PM CST
Civil Twilight 6:38 AM CST 6:27 PM CST
Nautical Twilight 6:07 AM CST 6:58 PM CST
Astronomical Twilight 5:36 AM CST 7:29 PM CST
Moon 8:07 PM CST (2/19) 7:29 AM CST (2/19)
Length of Visible Light 11h 49m
Length of Day
10h 55m
Full, 97% of the Moon is Illuminated
Feb 19
Full
Feb 24
Last Quarter
Mar 4
New
Mar 12
First Quarter
Mar 19
Full

Hourly Weather History & Observations

Time (CST) Temp. Windchill Dew Point Humidity Pressure Visibility Wind Dir Wind Speed Gust Speed Precip Events Conditions
12:53 AM 45.0 °F 40.6 °F 27.0 °F 49% 30.21 in 10.0 mi East 8.1 mph - N/A   Mostly Cloudy
1:53 AM 46.0 °F 41.4 °F 27.0 °F 47% 30.22 in 10.0 mi East 9.2 mph - N/A   Mostly Cloudy
2:53 AM 46.9 °F - 25.0 °F 42% 30.19 in 10.0 mi East 10.4 mph - N/A   Mostly Cloudy
3:53 AM 46.9 °F - 26.1 °F 44% 30.19 in 10.0 mi East 9.2 mph - N/A   Overcast
4:42 AM 46.4 °F 41.9 °F 30.2 °F 53% 30.18 in 10.0 mi East 9.2 mph - 0.00 in   Overcast
4:53 AM 45.0 °F 39.3 °F 30.9 °F 58% 30.19 in 10.0 mi East 11.5 mph - 0.00 in   Overcast
5:53 AM 43.0 °F 37.2 °F 35.1 °F 74% 30.20 in 10.0 mi ENE 10.4 mph - 0.02 in Rain Light Rain
6:53 AM 43.0 °F 36.8 °F 36.0 °F 76% 30.20 in 10.0 mi East 11.5 mph - 0.00 in   Overcast
7:53 AM 43.0 °F 36.4 °F 35.1 °F 74% 30.22 in 10.0 mi East 12.7 mph - N/A   Overcast
8:53 AM 44.1 °F 37.7 °F 33.1 °F 65% 30.21 in 10.0 mi ESE 12.7 mph 21.9 mph N/A   Overcast
9:53 AM 45.0 °F 38.9 °F 33.1 °F 63% 30.21 in 10.0 mi East 12.7 mph - N/A   Overcast
11:53 AM 46.9 °F - 34.0 °F 61% 30.19 in 10.0 mi East 13.8 mph 19.6 mph N/A   Overcast
12:53 PM 46.9 °F - 35.1 °F 63% 30.16 in 10.0 mi East 13.8 mph 19.6 mph N/A   Overcast
2:53 PM 46.9 °F - 37.0 °F 68% 30.10 in 10.0 mi ESE 13.8 mph - N/A   Overcast
3:34 PM 46.4 °F 41.9 °F 39.2 °F 76% 30.09 in 8.0 mi ESE 9.2 mph 23.0 mph 0.01 in Rain Light Rain
3:53 PM 45.0 °F 39.3 °F 39.9 °F 82% 30.08 in 10.0 mi East 11.5 mph - 0.05 in Rain Light Rain
4:53 PM 44.1 °F 37.7 °F 39.9 °F 85% 30.07 in 10.0 mi East 12.7 mph - 0.02 in   Overcast
5:53 PM 44.1 °F 39.0 °F 39.9 °F 85% 30.04 in 10.0 mi East 9.2 mph - 0.00 in   Overcast
6:53 PM 44.1 °F 38.6 °F 39.0 °F 82% 30.04 in 10.0 mi East 10.4 mph - N/A   Overcast
7:00 PM 44.6 °F 39.2 °F 39.2 °F 81% 30.02 in 10.0 mi East 10.4 mph - N/A   Overcast
7:53 PM 43.0 °F 36.8 °F 39.0 °F 86% 30.02 in 10.0 mi East 11.5 mph - N/A   Mostly Cloudy
8:53 PM 42.1 °F 36.1 °F 37.9 °F 85% 30.01 in 10.0 mi ESE 10.4 mph 20.7 mph N/A   Mostly Cloudy
9:53 PM 42.1 °F 35.2 °F 37.0 °F 82% 30.00 in 10.0 mi ESE 12.7 mph - N/A   Overcast
10:53 PM 44.1 °F 38.6 °F 37.9 °F 79% 29.96 in 10.0 mi ESE 10.4 mph 18.4 mph N/A   Overcast